TimeEET,TemperatureF,Dew PointF,Humidity,Sea Level PressureIn,VisibilityMPH,Wind Direction,Wind SpeedMPH,Gust SpeedMPH,PrecipitationIn,Events,Conditions,WindDirDegrees,DateUTC
12:00 AM,69.8,46.4,43,29.95,-9999.0,North,6.9,-,N/A,,Clear,350,2012-11-12 22:00:00
1:00 AM,68.0,48.2,49,29.95,-9999.0,NNE,3.5,-,N/A,,Clear,30,2012-11-12 23:00:00
2:00 AM,68.0,50.0,52,29.95,-9999.0,North,9.2,-,N/A,,Clear,360,2012-11-13 00:00:00
3:00 AM,68.0,50.0,52,29.95,-9999.0,North,6.9,-,N/A,,Clear,350,2012-11-13 01:00:00
4:00 AM,68.0,50.0,52,29.95,-9999.0,North,8.1,-,N/A,,Clear,350,2012-11-13 02:00:00
5:00 AM,68.0,50.0,52,29.95,-9999.0,North,11.5,-,N/A,,Clear,360,2012-11-13 03:00:00
6:00 AM,68.0,48.2,49,29.95,6.2,North,15.0,-,N/A,,Partly Cloudy,360,2012-11-13 04:00:00
7:00 AM,69.8,48.2,46,29.95,6.2,North,16.1,-,N/A,,Partly Cloudy,360,2012-11-13 05:00:00
8:00 AM,73.4,48.2,41,29.98,6.2,North,11.5,-,N/A,,Partly Cloudy,360,2012-11-13 06:00:00
9:00 AM,77.0,44.6,32,29.98,-9999.0,North,15.0,-,N/A,,Clear,10,2012-11-13 07:00:00
10:00 AM,-9999,-9999,N/A,29.98,-9999.0,North,-9999.0,-,N/A,,Clear,0,2012-11-13 08:00:00
11:00 AM,80.6,46.4,30,29.98,-9999.0,North,16.1,-,N/A,,Clear,10,2012-11-13 09:00:00
12:00 PM,84.2,46.4,27,29.95,-9999.0,NE,9.2,-,N/A,,Clear,40,2012-11-13 10:00:00
1:00 PM,84.2,44.6,25,29.92,6.2,NNE,10.4,-,N/A,,Mostly Cloudy,30,2012-11-13 11:00:00
2:00 PM,80.6,48.2,32,29.92,6.2,NE,9.2,-,N/A,,Mostly Cloudy,40,2012-11-13 12:00:00
3:00 PM,78.8,46.4,32,29.92,6.2,North,8.1,-,N/A,,Mostly Cloudy,10,2012-11-13 13:00:00
4:00 PM,78.8,48.2,34,29.92,6.2,North,8.1,-,N/A,,Mostly Cloudy,360,2012-11-13 14:00:00
5:00 PM,75.2,51.8,44,29.92,6.2,North,6.9,-,N/A,,Mostly Cloudy,350,2012-11-13 15:00:00
6:00 PM,75.2,53.6,47,29.92,-9999.0,NNW,9.2,-,N/A,,Clear,340,2012-11-13 16:00:00
7:00 PM,73.4,51.8,47,29.95,-9999.0,North,6.9,-,N/A,,Clear,350,2012-11-13 17:00:00
8:00 PM,73.4,50.0,44,29.95,-9999.0,North,6.9,-,N/A,,Clear,350,2012-11-13 18:00:00
9:00 PM,71.6,50.0,46,29.95,-9999.0,NNW,8.1,-,N/A,,Clear,330,2012-11-13 19:00:00
10:00 PM,71.6,48.2,43,29.98,-9999.0,North,10.4,-,N/A,,Clear,360,2012-11-13 20:00:00
11:00 PM,69.8,48.2,46,29.95,-9999.0,North,11.5,-,N/A,,Clear,360,2012-11-13 21:00:00